Content
SEND FEEDBACK

Daily
Averages
Monthly
Summary
Australia

MELBOURNE, VICTORIA


Home > Oceania > Australia > Victoria
Elevation: 433 feet     Latitude: 37 41S     Longitude: 144 51E

WEATHER
 
SELECT A DAY
Number of Records: 291,063;   Date Range: 7/1/96 - 9/30/14
 
SHARE

PRINT THIS DATA

[ ← Previous Day ]
WEATHER ALMANAC - JANUARY 3, 2013
[ Next Day → ]
[ °C ]   °F
Weather ElementAverageHighLow
Temperature77.6 °F100.4 °F (5:00 pm)53 °F (6:00 am)
Dewpoint44.6 °F51.8 °F (10:00 pm)39 °F (3:00 pm)
Humidity37.6 %82 % (2:30 am)6 % (5:00 pm)
Barometer29.93 in30.06 in (12:00 am)29.82 in (6:00 pm)
Wind Speed8.4 mph17.3 mph (7:00 pm)
Weather ElementAverage
Visibility23.7 mi
Wind DirectionSSE (156.7 °)

Weather ElementTotal
Precipitation---
Cooling Degree Days11.7 (Base 65)
Growing Degree Days26.7 (Base 50)
Averaged from 63 records on January 3, 2013
WEATHER CONDITIONS BREAKOUT
WIND DIRECTION BREAKOUT
WEATHER BY HOUR - JANUARY 3, 2013
[ °C ]   °F
Local TimeTemperatureDewpointHumidityBarometerVisibilityWind DirectionWind SpeedGust SpeedPrecipitationEventsConditions
12:00 AM57.2 °F48.2 °F72 %30.06 inWSW (250°)4.6 mphClear
12:30 AM57.2 °F48.2 °F72 %30.06 inWest (260°)6.9 mphClear
1:00 AM55.4 °F48.2 °F77 %30.06 inWest (280°)6.9 mphClear
1:30 AM55.4 °F48.2 °F77 %30.04 inNW (310°)4.6 mphClear
2:00 AM55.0 °F48.0 °F70 %30.03 inNW (310°)6.9 mph
2:00 AM55.4 °F48.2 °F77 %30.04 inNW (310°)6.9 mphClear
2:30 AM53.6 °F48.2 °F82 %30.01 inNorth (360°)5.8 mphClear
3:00 AM55.4 °F48.2 °F77 %30.01 inNorth (360°)8.1 mphClear
3:00 AM54.0 °F48.0 °F72 %30.01 in16.0 miNorth8.1 mphPartly Cloudy
3:30 AM55.4 °F48.2 °F77 %30.01 inNorth (360°)9.2 mphClear
4:00 AM53.6 °F46.4 °F77 %29.98 inNorth (360°)9.2 mphClear
4:30 AM55.4 °F46.4 °F72 %29.98 inNorth (360°)10.4 mphClear
5:00 AM54.0 °F47.0 °F69 %29.97 inNorth8.1 mph
5:00 AM53.6 °F46.4 °F77 %29.98 inNorth (360°)8.1 mphClear
5:30 AM53.6 °F46.4 °F77 %29.98 inNorth (360°)8.1 mphClear
6:00 AM53.6 °F48.2 °F82 %29.98 inNorth (360°)8.1 mphClear
6:00 AM53.0 °F47.0 °F75 %29.99 in19.0 miNorth8.1 mphPartly Cloudy
6:30 AM53.6 °F48.2 °F82 %30.01 inNorth (360°)2.3 mphClear
7:00 AM57.2 °F46.4 °F67 %30.01 inNorth (10°)8.1 mphClear
7:30 AM62.6 °F44.6 °F52 %30.01 inNorth (360°)6.9 mphClear
8:00 AM65.0 °F45.0 °F37 %30.00 inNorth (10°)5.8 mph
8:00 AM64.4 °F44.6 °F49 %30.01 inNorth (10°)5.8 mphClear
8:30 AM68.0 °F44.6 °F43 %30.01 inSE (130°)4.6 mphClear
9:00 AM71.6 °F41.0 °F33 %30.01 inNE (40°)3.5 mphClear
9:00 AM72.0 °F41.0 °F22 %30.01 in28.0 miNE (40°)3.5 mphPartly Cloudy
9:30 AM75.2 °F41.0 °F29 %30.01 inESE (110°)4.6 mphClear
10:00 AM78.8 °F39.2 °F24 %30.01 inESE (120°)5.8 mphClear
10:30 AM80.6 °F39.2 °F23 %29.98 inSE (140°)5.8 mphClear
11:00 AM84.0 °F42.0 °F13 %29.97 inESE (110°)6.9 mph
11:00 AM84.2 °F41.0 °F22 %29.98 inESE (110°)6.9 mphClear
11:30 AM86.0 °F42.8 °F22 %29.98 inESE (120°)8.1 mphClear
12:00 PM87.8 °F44.6 °F22 %29.95 inEast (90°)8.1 mphClear
12:00 PM88.0 °F45.0 °F13 %29.96 in28.0 miEast (90°)8.1 mphPartly Cloudy
12:30 PM89.6 °F44.6 °F21 %29.95 inEast (100°)5.8 mphClear
1:00 PM91.4 °F44.6 °F20 %29.95 inENE (60°)4.6 mphClear
1:30 PM91.4 °F41.0 °F17 %29.92 inSW (220°)6.9 mphClear
2:00 PM93.0 °F41.0 °F9 %29.91 inSE (130°)6.9 mph
2:00 PM93.2 °F41.0 °F16 %29.92 inSE (130°)6.9 mphClear
2:30 PM95.0 °F41.0 °F15 %29.89 inESE (120°)8.1 mphClear
3:00 PM96.8 °F39.2 °F14 %29.89 inEast (100°)9.2 mphClear
3:00 PM96.0 °F39.0 °F7 %29.88 in25.0 miEast (100°)9.2 mphPartly Cloudy
3:30 PM96.8 °F39.2 °F14 %29.86 inSE (130°)11.5 mphClear
4:00 PM96.8 °F39.2 °F14 %29.86 inSE (130°)10.4 mphClear
4:30 PM98.6 °F39.2 °F13 %29.83 inEast (80°)9.2 mphClear
5:00 PM100.0 °F40.0 °F6 %29.83 inEast (90°)12.7 mph
5:00 PM100.4 °F39.2 °F12 %29.83 inEast (90°)12.7 mphClear
5:30 PM96.8 °F39.2 °F14 %29.83 inSE (130°)10.4 mphClear
6:00 PM96.8 °F42.8 °F16 %29.83 inSE (140°)16.1 mphClear
6:00 PM97.0 °F42.0 °F8 %29.82 in25.0 miSE (140°)16.1 mphPartly Cloudy
6:30 PM95.0 °F41.0 °F15 %29.83 inESE (120°)13.8 mphClear
7:00 PM96.8 °F41.0 °F15 %29.83 inESE (120°)17.3 mphClear
7:30 PM96.8 °F41.0 °F15 %29.83 inESE (120°)13.8 mphClear
8:00 PM95.0 °F42.0 °F9 %29.83 inESE (110°)12.7 mph
8:00 PM95.0 °F42.8 °F16 %29.83 inESE (110°)12.7 mphClear
8:30 PM91.4 °F48.2 °F23 %29.83 inESE (120°)13.8 mphClear
9:00 PM89.6 °F50.0 °F26 %29.83 inESE (110°)12.7 mphClear
9:00 PM90.0 °F50.0 °F16 %29.83 in25.0 miESE (110°)12.7 mphPartly Cloudy
9:30 PM89.6 °F50.0 °F26 %29.83 inESE (110°)9.2 mphClear
10:00 PM86.0 °F51.8 °F31 %29.86 inENE (70°)5.8 mphClear
10:30 PM84.2 °F50.0 °F30 %29.86 inENE (70°)5.8 mphClear
11:00 PM80.0 °F51.0 °F25 %29.84 inNorth (10°)5.8 mph
11:00 PM80.6 °F50.0 °F34 %29.83 inNorth (10°)5.8 mphClear
11:30 PM78.8 °F50.0 °F36 %29.83 inNNW (340°)5.8 mphClear
Hourly data recorded from YMML, located miles away from Melbourne, Victoria







STORIES FROM OUR PARTNERS